Regional Weather Roundup
Issued by NWS

Home | Current Version | Previous Version | Text Only | Print | Product List | Glossary Off
Versions: 1 2 3 4 5 6 7 8 9 10 11 12 13 14 15 16 17 18 19 20 21 22 23 24 25 26 27 28 29 30 31 32 33 34 35 36 37 38 39 40 41 42 43 44 45 46 47 48 49 50

000
ASUS43 KOAX 200602
RWRNE

WEATHER ROUNDUP FOR NEBRASKA
NATIONAL WEATHER SERVICE OMAHA NE
100 AM CDT FRI OCT 20 2017

NOTES: SATELLITE DATA IS BEING USED TO AUGMENT CLOUD COVER ABOVE
       12000 FEET.
       "FAIR" INDICATES FEW OR NO CLOUDS BELOW 12,000 FEET WITH NO
       SIGNIFICANT WEATHER AND/OR OBSTRUCTIONS TO VISIBILITY.


NEZ001>004-019>022-054>056-200700-
NEBRASKA PANHANDLE

CITY           SKY/WX    TMP DP  RH WIND       PRES   REMARKS
SCOTTSBLUFF    CLEAR     60  32  34 S5        29.81F
6HR MIN TEMP:  54; 6HR MAX TEMP:  69;

ALLIANCE       PTCLDY    46  40  79 S9        29.81F
6HR MIN TEMP:  46; 6HR MAX TEMP:  64;

CHADRON        CLEAR     64  35  34 S18       29.71F
6HR MIN TEMP:  57; 6HR MAX TEMP:  71;

GORDON         FAIR      63  45  51 S14       29.77F
6HR MIN TEMP:  62; 6HR MAX TEMP:  71;

KIMBALL        CLEAR     49  36  61 SW6       29.85F
SIDNEY         PTCLDY    47  38  71 S6        29.85F
6HR MIN TEMP:  47; 6HR MAX TEMP:  69;

$$

NEZ057>060-069>072-079>082-200700-
SOUTHWEST NEBRASKA

CITY           SKY/WX    TMP DP  RH WIND       PRES   REMARKS
NORTH PLATTE   PTCLDY    62  44  51 SE8       29.87F
6HR MIN TEMP:  62; 6HR MAX TEMP:  71;

IMPERIAL       PTCLDY    59  42  53 S9        29.86F
6HR MIN TEMP:  58; 6HR MAX TEMP:  71;

LEXINGTON      PTCLDY    59  46  60 S12       29.91S
MCCOOK         PTCLDY    63  44  50 S17       29.89F
6HR MIN TEMP:  63; 6HR MAX TEMP:  72;

OGALLALA       PTCLDY    60  44  56 CALM      29.85F
$$

NEZ005>010-023>029-035>040-094-200700-
NORTH CENTRAL NEBRASKA

CITY           SKY/WX    TMP DP  RH WIND       PRES   REMARKS
VALENTINE      PTCLDY    64  44  48 SW12      29.79F
6HR MIN TEMP:  64; 6HR MAX TEMP:  75;

AINSWORTH      PTCLDY    60  46  60 S14       29.82F
BROKEN BOW     PTCLDY    59  45  59 SE6       29.89F
6HR MIN TEMP:  59; 6HR MAX TEMP:  69;

O`NEILL        PTCLDY    62  47  58 S13       29.86F
ORD            PTCLDY    60  45  57 S10       29.88F
6HR MIN TEMP:  60; 6HR MAX TEMP:  72;

THEDFORD       CLEAR     64  43  46 S15G21    29.85S
$$

NEZ041-046>049-061>064-073>077-083>087-200700-
SOUTH CENTRAL NEBRASKA

CITY           SKY/WX    TMP DP  RH WIND       PRES   REMARKS
GRAND ISLAND   FAIR      60  48  64 S15       29.93F
6HR MIN TEMP:  60; 6HR MAX TEMP:  72;

AURORA         FAIR      60  46  58 S10G17    29.95S
HASTINGS       FAIR      60  46  59 S10       29.95F
6HR MIN TEMP:  60; 6HR MAX TEMP:  73;

HEBRON         FAIR      61  49  64 S12       29.98S
HOLDREGE       FAIR      58  47  68 S10G16    29.93S
KEARNEY        FAIR      60  45  57 S16       29.93S
YORK             N/A     61  46  59 S14       29.96S
$$

NEZ011>018-030>034-042>045-200700-
NORTHEAST NEBRASKA

CITY           SKY/WX    TMP DP  RH WIND       PRES   REMARKS
NORFOLK        FAIR      62  47  57 S15       29.90F
6HR MIN TEMP:  62; 6HR MAX TEMP:  67;

ALBION         FAIR      60  48  65 S10       29.91S
BLAIR          FAIR      63  51  64 S15       29.97R
COLUMBUS       FAIR      63  47  55 S13       29.94S
FREMONT        FAIR      64  47  55 S13G18    29.96S
TEKAMAH        FAIR      56  49  77 S8        29.95R
6HR MIN TEMP:  49; 6HR MAX TEMP:  66;

WAYNE          FAIR      56  49  76 CALM      29.91S
$$

NEZ050>053-065>068-078-088>093-200700-
SOUTHEAST NEBRASKA

CITY           SKY/WX    TMP DP  RH WIND       PRES   REMARKS
LINCOLN        FAIR      62  48  60 S14       29.98R
6HR MIN TEMP:  57; 6HR MAX TEMP:  67;

OMAHA EPPLEY   FAIR      60  50  69 S12       29.98S
6HR MIN TEMP:  59; 6HR MAX TEMP:  70;

BEATRICE       FAIR      62  49  63 S13       30.00S
FALLS CITY     FAIR      60  52  74 S7        30.03S
6HR MIN TEMP:  60; 6HR MAX TEMP:  68;

NEBRASKA CITY  FAIR      59  52  78 S9        30.01S
PLATTSMOUTH    FAIR      60  52  74 S12       30.00R
$$

NEZ044-045-051>053-067-200700-
OMAHA AREA

CITY           SKY/WX    TMP DP  RH WIND       PRES   REMARKS
OMAHA EPPLEY   FAIR      60  50  69 S12       29.98S
6HR MIN TEMP:  59; 6HR MAX TEMP:  70;

BLAIR          FAIR      63  51  64 S15       29.97R
FREMONT        FAIR      64  47  55 S13G18    29.96S
MILLARD        FAIR      64  52  63 SE7       29.98S
OFFUTT AFB     FAIR      56  49  80 E6        29.98S
PLATTSMOUTH    FAIR      60  52  74 S12       30.00R
WAHOO          FAIR      59  47  66 S9        29.96S
$$




USA.gov is the U.S. government's official web portal to all federal, state and local government web resources and services.